Location: Cruquius
(52.3348°N, 4.6319°E)
Time: 20:45:12
(UTC+00:00)

SL-27 R/B - Pass Details

Date: 12 May 2021
Orbit: 417 x 468 km, 74.7° (Epoch: 21 June)

Event Time Altitude Azimuth Distance (km) Brightness Sun altitude
Rises 22:10:15 0° 345° (NNW) 2,383 7.8 -16.8°
Reaches altitude 10° 22:12:42 10° 4° (N) 1,517 6.1 -16.9°
Maximum altitude 22:15:13 20° 53° (NE) 1,055 4.4 -17.0°
Enters shadow 22:16:44 15° 88° (E) 1,242 4.4 -17.1°
